Coffman Cove, AK

9:07 PM AKST on February 07, 2016 (GMT -0900)
Ketchikan International

Weather History for PAKT - February, 2014

Change the Weather History Date:

Tuesday, February 11, 2014

  Actual Average Record
Temperature  
Mean Temperature 30 °F -  
Max Temperature 33 °F 39 °F 51 °F (1963)
Min Temperature 26 °F 29 °F 10 °F (1975)
Degree Days  
Heating Degree Days 36    
Moisture  
Dew Point 28 °F    
Average Humidity 94    
Maximum Humidity 100    
Minimum Humidity 85    
Precipitation  
Precipitation 1.04 in - - ()
Sea Level Pressure  
Sea Level Pressure 29.48 in    
Wind  
Wind Speed 5 mph (WNW)    
Max Wind Speed 14 mph    
Max Gust Speed 21 mph    
Visibility 3 miles    
Events Rain , Snow    
Averages and records for this station are not official NWS values.
T = Trace of Precipitation, MM = Missing Value Source: NWS Daily Summary

Daily Weather History Graph

Daily Weather History Graph

Search for Another Location

Airport or City:

Trip Planner

Search our weather history database for the weather conditions in past years. The results will help you decide how hot, cold, wet, or windy it might be!

Date:

Astronomy

Feb. 11, 2014 Rise Set
Actual Time 7:18 AM AKST 4:44 PM AKST
Civil Twilight 6:39 AM AKST 5:23 PM AKST
Nautical Twilight 5:56 AM AKST 6:06 PM AKST
Astronomical Twilight 5:14 AM AKST 6:48 PM AKST
Moon 1:57 PM AKST (2/11) 5:15 AM AKST (2/11)
Length of Visible Light 10h 43m
Length of Day
9h 25m
Waxing Gibbous, 91% of the Moon is Illuminated
Feb 11
Waxing Gibbous
Feb 14
Full
Feb 22
Last Quarter
Feb 28
New
Mar 8
First Quarter

Hourly Weather History & Observations

Time (AKST) Temp. Windchill Dew Point Humidity Pressure Visibility Wind Dir Wind Speed Gust Speed Precip Events Conditions
12:53 AM 27.0 °F 20.5 °F 23.0 °F 85% 29.65 in 10.0 mi WNW 5.8 mph - N/A   Overcast
1:53 AM 26.1 °F 16.8 °F 24.1 °F 92% 29.69 in 6.0 mi NW 9.2 mph - N/A   Overcast
2:43 AM 26.6 °F 21.2 °F 24.8 °F 93% 29.69 in 8.0 mi NW 4.6 mph - N/A   Overcast
3:37 AM 26.6 °F 22.6 °F 24.8 °F 93% 29.70 in 10.0 mi NW 3.5 mph - N/A   Overcast
3:51 AM 26.6 °F 20.0 °F 24.8 °F 93% 29.69 in 8.0 mi NW 5.8 mph - N/A   Overcast
3:53 AM 27.0 °F 23.0 °F 25.0 °F 92% 29.70 in 7.0 mi NW 3.5 mph - N/A   Overcast
4:07 AM 26.6 °F 21.2 °F 24.8 °F 93% 29.70 in 5.0 mi NW 4.6 mph - N/A   Overcast
4:35 AM 26.6 °F 22.6 °F 26.6 °F 100% 29.70 in 4.0 mi NW 3.5 mph - 0.00 in Rain Light Freezing Rain
4:43 AM 26.6 °F - 26.6 °F 100% 29.70 in 4.0 mi Calm Calm - 0.00 in Rain Light Freezing Rain
4:53 AM 27.0 °F 23.0 °F 27.0 °F 100% 29.71 in 4.0 mi NW 3.5 mph - 0.01 in Rain Light Freezing Rain
5:24 AM 28.4 °F - 26.6 °F 93% 29.70 in 3.0 mi Calm Calm - 0.00 in Snow Light Snow
5:38 AM 28.4 °F - 26.6 °F 93% 29.70 in 4.0 mi Calm Calm - 0.00 in   Overcast
5:53 AM 28.0 °F 24.2 °F 27.0 °F 96% 29.71 in 3.0 mi WNW 3.5 mph - 0.01 in   Overcast
5:58 AM 28.4 °F 24.6 °F 26.6 °F 93% 29.70 in 5.0 mi WNW 3.5 mph - 0.00 in   Overcast
6:53 AM 28.0 °F - 26.1 °F 92% 29.70 in 6.0 mi Calm Calm - 0.00 in Snow Light Snow
7:53 AM 30.0 °F 23.2 °F 28.0 °F 92% 29.70 in 3.0 mi SSE 6.9 mph - 0.00 in Snow Light Snow
8:00 AM 30.2 °F 23.4 °F 28.4 °F 93% 29.70 in 4.0 mi SSE 6.9 mph - 0.00 in Snow Light Snow
8:19 AM 30.2 °F 22.6 °F 28.4 °F 93% 29.70 in 10.0 mi SSE 8.1 mph - 0.00 in   Overcast
8:53 AM 30.0 °F 24.1 °F 28.9 °F 96% 29.69 in 10.0 mi SSE 5.8 mph - 0.00 in   Overcast
9:53 AM 30.9 °F 23.5 °F 28.0 °F 89% 29.67 in 2.0 mi SSE 8.1 mph - 0.00 in Snow Light Snow
10:21 AM 32.0 °F 23.0 °F 28.4 °F 87% 29.64 in 3.0 mi SSE 11.5 mph - 0.00 in Snow Light Snow
10:53 AM 32.0 °F 26.4 °F 28.9 °F 88% 29.62 in 5.0 mi South 5.8 mph - 0.00 in Snow Light Snow
11:24 AM 32.0 °F 27.5 °F 28.4 °F 87% 29.58 in 2.0 mi SE 4.6 mph - 0.01 in Snow Light Snow
11:31 AM 32.0 °F - 28.4 °F 87% 29.57 in 1.5 mi Calm Calm - 0.01 in Snow Light Snow
11:53 AM 30.9 °F 26.2 °F 30.0 °F 96% 29.54 in 1.5 mi WNW 4.6 mph - 0.03 in Snow Light Snow
11:55 AM 30.2 °F 26.7 °F 28.4 °F 93% 29.53 in 1.5 mi WNW 3.5 mph - 0.00 in Snow Light Snow
11:56 AM 30.2 °F 26.7 °F 28.4 °F 93% 29.53 in 1.5 mi WNW 3.5 mph - 0.00 in Snow Light Snow
12:09 PM 30.2 °F 24.3 °F 28.4 °F 93% 29.51 in 1.0 mi WNW 5.8 mph - 0.01 in Snow Light Snow
12:31 PM 30.2 °F 24.3 °F 28.4 °F 93% 29.47 in 0.8 mi WNW 5.8 mph - 0.05 in Snow Light Snow
12:53 PM 30.0 °F 22.4 °F 28.0 °F 92% 29.44 in 0.8 mi NW 8.1 mph - 0.10 in Snow Light Snow
12:59 PM 30.2 °F 24.3 °F 28.4 °F 93% 29.42 in 2.0 mi NNW 5.8 mph - 0.01 in Snow Light Snow
1:53 PM 30.0 °F 23.2 °F 28.9 °F 96% 29.36 in 1.5 mi WNW 6.9 mph - 0.07 in Snow Light Snow
2:53 PM 30.9 °F 27.5 °F 30.0 °F 96% 29.31 in 1.0 mi NNW 3.5 mph - 0.08 in Snow Light Snow
3:53 PM 30.9 °F 27.5 °F 30.0 °F 96% 29.25 in 1.0 mi NNW 3.5 mph - 0.10 in Snow Light Snow
4:53 PM 32.0 °F 26.4 °F 30.9 °F 96% 29.22 in 1.0 mi South 5.8 mph - 0.08 in Snow Light Snow
5:17 PM 32.0 °F - 30.2 °F 93% 29.21 in 2.0 mi Calm Calm - 0.02 in Snow Light Snow
5:53 PM 32.0 °F - 30.9 °F 96% 29.20 in 1.8 mi Calm Calm - 0.04 in Snow Light Snow
6:06 PM 32.0 °F - 30.2 °F 93% 29.19 in 2.0 mi Calm Calm - 0.01 in Snow Light Snow
6:53 PM 32.0 °F 27.5 °F 30.9 °F 96% 29.18 in 2.0 mi SSE 4.6 mph - 0.03 in Snow Light Snow
7:53 PM 33.1 °F 27.7 °F 30.9 °F 92% 29.17 in 1.0 mi South 5.8 mph 17.3 mph 0.04 in Snow Light Snow
8:53 PM 33.1 °F 25.5 °F 32.0 °F 96% 29.16 in 1.5 mi SSE 9.2 mph - 0.09 in Snow Light Snow
9:53 PM 33.1 °F 30.0 °F 32.0 °F 96% 29.15 in 1.5 mi Variable 3.5 mph - 0.13 in Snow Light Snow
10:13 PM 32.0 °F - 32.0 °F 100% 29.15 in 1.2 mi Calm Calm - 0.05 in Snow Light Snow
10:25 PM 32.0 °F 25.6 °F 30.2 °F 93% 29.15 in 2.5 mi NW 6.9 mph - 0.07 in Snow Light Snow
10:35 PM 32.0 °F 27.5 °F 30.2 °F 93% 29.16 in 1.2 mi NW 4.6 mph - 0.11 in Snow Light Snow
10:53 PM 32.0 °F 23.6 °F 30.9 °F 96% 29.17 in 0.8 mi NW 10.4 mph - 0.15 in Snow Light Snow
11:20 PM 30.2 °F 21.3 °F 30.2 °F 100% 29.17 in 1.0 mi NW 10.4 mph - 0.05 in Snow Light Snow
11:44 PM 30.2 °F 20.8 °F 28.4 °F 93% 29.18 in 1.2 mi WNW 11.5 mph 19.6 mph 0.07 in Snow Light Snow
11:53 PM 30.0 °F 19.5 °F 28.0 °F 92% 29.19 in 1.5 mi WNW 13.8 mph 20.7 mph 0.08 in Snow Light Snow